Tiempo cada hora Dabynivka

Hoy, 14 Mayo, Viernes

Tiempo Temperatura Precipitaciones Viento Presión Humedad
00:00 +12°C° 0 mm 3 mps 750 mmHg 71%
01:00 +11°C° 0 mm 3 mps 750 mmHg 75%
02:00 +11°C° 0 mm 3 mps 750 mmHg 79%
03:00 +11°C° 0 mm 3 mps 749 mmHg 83%
04:00 +12°C° 0 mm 3 mps 749 mmHg 86%
05:00 +12°C° 0 mm 3 mps 749 mmHg 89%
06:00 +14°C° 0.1 mm 3 mps 749 mmHg 84%
07:00 +17°C° 0.1 mm 3 mps 748 mmHg 80%
08:00 +19°C° 0.1 mm 4 mps 748 mmHg 75%
09:00 +20°C° 0 mm 4 mps 748 mmHg 69%
10:00 +22°C° 0 mm 5 mps 748 mmHg 62%
11:00 +23°C° 0 mm 5 mps 748 mmHg 55%
12:00 +23°C° 0 mm 5 mps 748 mmHg 52%
13:00 +23°C° 0 mm 5 mps 748 mmHg 50%
14:00 +25°C° 0 mm 5 mps 748 mmHg 47%
15:00 +23°C° 0 mm 5 mps 748 mmHg 51%
16:00 +22°C° 0 mm 5 mps 748 mmHg 55%
17:00 +21°C° 0 mm 5 mps 748 mmHg 59%
18:00 +20°C° 0 mm 4 mps 748 mmHg 65%
19:00 +18°C° 0 mm 4 mps 748 mmHg 70%
20:00 +17°C° 0 mm 3 mps 749 mmHg 75%
21:00 +16°C° 0 mm 3 mps 749 mmHg 78%
22:00 +14°C° 0 mm 3 mps 749 mmHg 80%
23:00 +13°C° 0 mm 3 mps 749 mmHg 83%

Mañana, 15 Mayo, Sábado

Tiempo Temperatura Precipitaciones Viento Presión Humedad
00:00 +13°C° 0 mm 3 mps 749 mmHg 83%
01:00 +12°C° 0 mm 3 mps 749 mmHg 83%
02:00 +12°C° 0 mm 4 mps 750 mmHg 83%
03:00 +12°C° 0 mm 3 mps 750 mmHg 84%
04:00 +12°C° 0 mm 3 mps 750 mmHg 85%
05:00 +12°C° 0 mm 3 mps 750 mmHg 86%
06:00 +14°C° 0 mm 3 mps 750 mmHg 79%
07:00 +17°C° 0 mm 4 mps 750 mmHg 73%
08:00 +19°C° 0 mm 4 mps 751 mmHg 66%
09:00 +20°C° 0 mm 5 mps 751 mmHg 61%
10:00 +22°C° 0 mm 5 mps 751 mmHg 55%
11:00 +23°C° 0 mm 5 mps 751 mmHg 50%
12:00 +23°C° 0 mm 5 mps 751 mmHg 48%
13:00 +25°C° 0 mm 5 mps 751 mmHg 46%
14:00 +25°C° 0 mm 5 mps 751 mmHg 44%
15:00 +23°C° 0 mm 4 mps 751 mmHg 48%
16:00 +24°C° 0 mm 3 mps 751 mmHg 52%
17:00 +22°C° 0 mm 3 mps 751 mmHg 56%
18:00 +21°C° 0 mm 2 mps 751 mmHg 58%
19:00 +20°C° 0 mm 2 mps 751 mmHg 60%
20:00 +20°C° 0 mm 1 mps 751 mmHg 62%
21:00 +19°C° 0 mm 1 mps 751 mmHg 64%
22:00 +18°C° 0 mm 1 mps 751 mmHg 67%
23:00 +18°C° 0 mm 1 mps 751 mmHg 70%

Pasado mañana, 16 Mayo, Domingo

Tiempo Temperatura Precipitaciones Viento Presión Humedad
00:00 +16°C° 0 mm 1 mps 751 mmHg 72%
01:00 +15°C° 0 mm 1 mps 751 mmHg 75%
02:00 +15°C° 0 mm 1 mps 751 mmHg 78%
03:00 +15°C° 0 mm 1 mps 752 mmHg 78%
04:00 +15°C° 0 mm 1 mps 752 mmHg 78%
05:00 +14°C° 0 mm 0 mps 752 mmHg 78%
06:00 +18°C° 0 mm 1 mps 752 mmHg 72%
07:00 +20°C° 0 mm 1 mps 752 mmHg 66%
08:00 +22°C° 0 mm 1 mps 752 mmHg 61%
09:00 +23°C° 0 mm 2 mps 752 mmHg 56%
10:00 +24°C° 0 mm 2 mps 752 mmHg 52%
11:00 +25°C° 0 mm 2 mps 751 mmHg 47%
12:00 +26°C° 0 mm 2 mps 751 mmHg 46%
13:00 +26°C° 0 mm 3 mps 751 mmHg 45%
14:00 +27°C° 0 mm 3 mps 750 mmHg 43%
15:00 +26°C° 0 mm 3 mps 750 mmHg 46%
16:00 +26°C° 0 mm 3 mps 750 mmHg 48%
17:00 +26°C° 0 mm 3 mps 749 mmHg 50%
18:00 +24°C° 0 mm 3 mps 749 mmHg 56%
19:00 +21°C° 0 mm 3 mps 749 mmHg 61%
20:00 +19°C° 0 mm 3 mps 749 mmHg 66%
21:00 +19°C° 0.2 mm 3 mps 748 mmHg 70%
22:00 +18°C° 0.2 mm 3 mps 748 mmHg 73%
23:00 +18°C° 0.2 mm 3 mps 748 mmHg 77%

17 Mayo, Lunes

Tiempo Temperatura Precipitaciones Viento Presión Humedad
00:00 +18°C° 0.8 mm 3 mps 747 mmHg 82%
01:00 +18°C° 0.8 mm 3 mps 747 mmHg 87%
02:00 +17°C° 0.8 mm 3 mps 746 mmHg 92%
03:00 +17°C° 0.2 mm 3 mps 746 mmHg 92%
04:00 +17°C° 0.2 mm 2 mps 746 mmHg 92%
05:00 +17°C° 0.2 mm 2 mps 746 mmHg 92%
06:00 +18°C° 0 mm 2 mps 746 mmHg 89%
07:00 +19°C° 0 mm 2 mps 746 mmHg 86%
08:00 +20°C° 0 mm 2 mps 746 mmHg 83%
09:00 +21°C° 0 mm 2 mps 746 mmHg 77%
10:00 +23°C° 0 mm 2 mps 746 mmHg 72%
11:00 +24°C° 0 mm 2 mps 746 mmHg 67%
12:00 +25°C° 0.1 mm 2 mps 746 mmHg 65%
13:00 +25°C° 0.1 mm 3 mps 746 mmHg 64%
14:00 +25°C° 0.1 mm 4 mps 746 mmHg 63%
15:00 +25°C° 0.2 mm 4 mps 746 mmHg 66%
16:00 +24°C° 0.2 mm 3 mps 746 mmHg 70%
17:00 +22°C° 0.2 mm 3 mps 746 mmHg 73%
18:00 +21°C° 0.1 mm 3 mps 747 mmHg 78%
19:00 +19°C° 0.1 mm 3 mps 747 mmHg 84%
20:00 +18°C° 0.1 mm 3 mps 748 mmHg 90%
21:00 +17°C° 0 mm 3 mps 748 mmHg 91%
22:00 +17°C° 0 mm 2 mps 748 mmHg 93%
23:00 +16°C° 0 mm 2 mps 749 mmHg 94%

18 Mayo, Martes

Tiempo Temperatura Precipitaciones Viento Presión Humedad
00:00 +15°C° 0 mm 2 mps 749 mmHg 94%
01:00 +15°C° 0 mm 2 mps 749 mmHg 93%
02:00 +14°C° 0 mm 2 mps 749 mmHg 93%
03:00 +14°C° 0 mm 2 mps 749 mmHg 93%
04:00 +14°C° 0 mm 2 mps 749 mmHg 93%
05:00 +14°C° 0 mm 2 mps 750 mmHg 92%
06:00 +16°C° 0 mm 2 mps 750 mmHg 86%
07:00 +17°C° 0 mm 2 mps 750 mmHg 80%
08:00 +19°C° 0 mm 2 mps 751 mmHg 74%
09:00 +20°C° 0.2 mm 2 mps 751 mmHg 71%
10:00 +21°C° 0.2 mm 2 mps 751 mmHg 68%
11:00 +21°C° 0.2 mm 2 mps 751 mmHg 65%
12:00 +22°C° 0.1 mm 3 mps 751 mmHg 62%
13:00 +24°C° 0.1 mm 3 mps 751 mmHg 59%
14:00 +24°C° 0.1 mm 3 mps 751 mmHg 55%
15:00 +24°C° 0 mm 2 mps 750 mmHg 55%
16:00 +24°C° 0 mm 1 mps 750 mmHg 54%
17:00 +24°C° 0 mm 1 mps 750 mmHg 53%
18:00 +22°C° 0 mm 1 mps 750 mmHg 58%
19:00 +21°C° 0 mm 1 mps 750 mmHg 64%
20:00 +19°C° 0 mm 1 mps 750 mmHg 69%
21:00 +18°C° 0 mm 2 mps 750 mmHg 70%
22:00 +17°C° 0 mm 2 mps 750 mmHg 72%
23:00 +17°C° 0 mm 2 mps 750 mmHg 73%

19 Mayo, Miércoles

Tiempo Temperatura Precipitaciones Viento Presión Humedad
00:00 +16°C° 0 mm 2 mps 750 mmHg 74%
01:00 +16°C° 0 mm 3 mps 750 mmHg 75%
02:00 +16°C° 0 mm 3 mps 750 mmHg 76%
03:00 +16°C° 0 mm 3 mps 750 mmHg 77%
04:00 +16°C° 0 mm 3 mps 749 mmHg 78%
05:00 +16°C° 0 mm 3 mps 749 mmHg 79%
06:00 +17°C° 0 mm 4 mps 749 mmHg 74%
07:00 +19°C° 0 mm 5 mps 749 mmHg 69%
08:00 +20°C° 0 mm 6 mps 749 mmHg 64%
09:00 +22°C° 0 mm 6 mps 749 mmHg 60%
10:00 +23°C° 0 mm 6 mps 749 mmHg 56%
11:00 +24°C° 0 mm 7 mps 749 mmHg 52%
12:00 +24°C° 0 mm 6 mps 748 mmHg 50%
13:00 +26°C° 0 mm 6 mps 748 mmHg 49%
14:00 +26°C° 0 mm 6 mps 747 mmHg 48%
15:00 +22°C° 0.1 mm 6 mps 748 mmHg 59%
16:00 +20°C° 0.1 mm 6 mps 748 mmHg 71%
17:00 +16°C° 0.1 mm 6 mps 748 mmHg 82%
18:00 +15°C° 0.1 mm 5 mps 748 mmHg 84%
19:00 +14°C° 0.1 mm 5 mps 749 mmHg 85%
20:00 +14°C° 0.1 mm 5 mps 749 mmHg 86%
21:00 +13°C° 0.9 mm 4 mps 749 mmHg 89%
22:00 +13°C° 0.9 mm 4 mps 749 mmHg 91%
23:00 +12°C° 0.9 mm 4 mps 749 mmHg 93%
Mostrar más

Necesitamos Su Consentimiento

Meteoprog y nuestros Proveedores de Servicios pueden almacenar y acceder a sus datos personales como cookies, identificadores de dispositivo u otras tecnologías similares de su dispositivo y procesar dichos datos para personalizar contenido y anuncios, además de ofrecer funciones de redes sociales y analizar el tráfico.

  • Almacenar y/o acceder a información en su dispositivo

    Se puede almacenar o acceder a cookies, identificadores de dispositivo u otra información de su dispositivo para los fines anteriormente indicados.

  • Anuncios y contenido personalizados, medición de anuncios y contenido, percepciones del público, y desarrollo de productos

    Los anuncios y el contenido pueden personalizarse en base a su perfil. Se pueden añadir más datos para personalizar mejor los anuncios y contenidos. Se puede medir el rendimiento de los anuncios y contenidos. Se puede obtener la percepción sobre el público que ha visto los anuncios y contenidos. Dichos datos pueden usarse para desarrollar o mejorar la experiencia del usuario, sistemas y software.

Al hacer clic en ‘Estoy De Acuerdo’ usted permitirá el uso de las cookies, identificadores de dispositivo, balizas web u otras tecnologías similares indicadas. Su configuración puede cambiarse desde el navegador de su dispositivo.

Para ciertos fines, los intereses legítimos pueden ser considerados por encima del consentimiento. Puede leer más sobre ello en nuestra Política de Privacidad y Cookies.